�N����,����,�~����,�C��,���x,�C��,����,���ϕ���,�ő�u�ԕ���,�ő厞����,���˗�,�I�_���x,�n�����x,�ő啗���N��,DTYPE
"21/12/20","00:10",0.0,2.8,81.2,1013.5,309.6,1.8,2.5,320.1,0.00,-0.1,8.1,"00:02:56",1
"21/12/20","00:20",0.0,2.8,82.5,1013.5,317.7,2.1,2.9,324.1,0.00,0.2,7.9,"00:10:56",1
"21/12/20","00:30",0.0,2.8,83.7,1013.3,307.8,1.2,3.2,320.5,0.00,0.4,7.8,"00:20:32",1
"21/12/20","00:40",0.0,2.8,85.2,1013.5,290.7,1.7,2.4,296.5,0.00,0.6,7.8,"00:38:08",1
"21/12/20","00:50",0.0,2.8,86.1,1013.3,288.3,1.7,2.7,313.5,0.00,0.8,7.9,"00:43:44",1
"21/12/20","01:00",0.0,2.9,87.0,1013.3,306.0,1.8,2.8,325.2,0.00,1.0,7.7,"00:58:16",1
"21/12/20","01:10",0.0,3.0,87.4,1013.3,292.8,1.5,2.5,315.4,0.00,1.2,7.7,"01:00:08",1
"21/12/20","01:20",0.0,3.0,87.9,1013.3,284.3,1.3,1.8,307.5,0.00,1.2,7.9,"01:19:36",1
"21/12/20","01:30",0.0,3.1,88.3,1013.3,296.0,2.0,2.8,322.8,0.00,1.4,7.9,"01:29:04",1
"21/12/20","01:40",0.0,3.2,88.7,1013.3,317.9,1.7,2.5,322.6,0.00,1.6,7.9,"01:34:24",1
"21/12/20","01:50",0.0,3.3,89.1,1013.3,315.0,2.1,2.9,323.7,0.00,1.7,7.9,"01:42:48",1
"21/12/20","02:00",0.0,3.3,89.4,1013.3,281.5,1.8,2.8,319.1,0.00,1.8,7.8,"01:50:24",1
"21/12/20","02:10",0.0,3.7,89.5,1013.3,276.1,1.6,2.0,270.5,0.00,2.2,7.8,"02:01:12",1
"21/12/20","02:20",0.0,3.8,89.6,1013.5,300.1,1.8,2.5,321.7,0.00,2.3,7.8,"02:15:04",1
"21/12/20","02:30",0.0,3.7,89.7,1013.5,284.7,1.1,2.0,333.1,0.00,2.2,7.8,"02:21:36",1
"21/12/20","02:40",0.0,3.7,89.6,1013.8,297.1,1.2,2.2,314.9,0.00,2.2,7.8,"02:31:52",1
"21/12/20","02:50",0.0,3.9,88.9,1013.8,189.1,1.0,2.0,169.7,0.00,2.3,7.6,"02:47:04",1
"21/12/20","03:00",0.0,4.1,87.3,1014.2,220.5,1.5,2.6,164.3,0.00,2.2,7.9,"02:56:44",1
"21/12/20","03:10",0.0,3.9,85.9,1013.8,269.0,1.5,2.4,311.6,0.00,1.8,7.7,"03:08:32",1
"21/12/20","03:20",0.0,3.4,85.3,1014.2,302.9,2.1,3.1,322.2,0.00,1.2,7.8,"03:16:56",1
"21/12/20","03:30",0.0,3.0,85.4,1014.5,319.9,2.0,2.8,329.8,0.00,0.8,8.0,"03:26:24",1
"21/12/20","03:40",0.0,2.4,85.8,1014.7,296.7,2.0,2.2,316.3,0.00,0.3,7.6,"03:30:24",1
"21/12/20","03:50",0.0,2.3,86.5,1014.0,290.5,1.8,2.4,318.8,0.00,0.3,7.5,"03:40:08",1
"21/12/20","04:00",0.0,2.3,86.9,1014.0,296.9,2.0,2.4,293.4,0.00,0.4,7.6,"03:51:36",1
"21/12/20","04:10",0.0,2.4,87.4,1014.0,291.9,1.7,2.4,313.9,0.00,0.6,7.8,"04:07:12",1
"21/12/20","04:20",0.0,2.5,87.8,1014.2,305.3,1.7,2.2,314.3,0.00,0.7,7.6,"04:19:44",1
"21/12/20","04:30",0.0,2.5,88.2,1013.8,297.5,1.8,2.4,311.9,0.00,0.8,7.7,"04:20:48",1
"21/12/20","04:40",0.0,2.6,88.5,1013.8,292.7,1.7,2.1,308.4,0.00,0.9,7.7,"04:38:56",1
"21/12/20","04:50",0.0,2.7,88.9,1014.0,295.0,2.1,3.1,331.2,0.00,1.1,7.6,"04:49:12",1
"21/12/20","05:00",0.0,2.7,89.2,1014.0,305.2,2.1,3.2,331.0,0.00,1.1,7.5,"04:50:24",1
"21/12/20","05:10",0.0,2.6,89.5,1014.2,307.4,1.6,2.7,322.8,0.00,1.1,7.6,"05:03:28",1
"21/12/20","05:20",0.0,2.7,89.9,1014.2,307.5,1.7,2.7,310.9,0.00,1.3,7.7,"05:14:40",1
"21/12/20","05:30",0.0,2.7,90.2,1014.2,307.9,2.0,2.6,321.1,0.00,1.3,7.7,"05:23:52",1
"21/12/20","05:40",0.0,2.8,90.5,1014.0,313.5,1.6,2.1,313.5,0.00,1.4,7.5,"05:37:04",1
"21/12/20","05:50",0.0,3.1,90.7,1014.5,339.5,1.2,2.4,323.7,0.00,1.8,7.6,"05:44:16",1
"21/12/20","06:00",0.0,3.3,90.7,1014.5,296.9,1.5,2.6,329.3,0.00,2.0,7.6,"05:55:44",1
"21/12/20","06:10",0.0,3.5,90.3,1014.9,322.2,1.7,3.4,324.9,0.00,2.1,7.7,"06:02:00",1
"21/12/20","06:20",0.0,3.9,89.4,1014.9,310.7,2.0,4.0,328.2,0.00,2.4,7.5,"06:12:16",1
"21/12/20","06:30",0.0,4.2,87.9,1014.9,329.0,2.6,4.5,342.4,0.00,2.4,7.6,"06:20:24",1
"21/12/20","06:40",0.0,4.3,86.1,1015.2,320.4,2.7,4.3,336.6,0.00,2.2,7.4,"06:32:32",1
"21/12/20","06:50",0.0,4.4,84.2,1015.4,313.7,2.2,4.1,317.4,0.00,2.0,7.5,"06:48:08",1
"21/12/20","07:00",0.0,4.3,82.7,1015.4,322.7,1.8,3.4,313.7,0.00,1.7,7.6,"06:52:48",1
"21/12/20","07:10",0.0,4.3,81.6,1015.6,334.8,2.1,4.0,338.9,0.00,1.5,7.5,"07:00:16",1
"21/12/20","07:20",0.0,4.3,80.9,1015.2,307.8,1.8,3.6,326.8,0.00,1.4,7.6,"07:18:24",1
"21/12/20","07:30",0.0,4.1,80.9,1015.4,302.2,1.8,2.7,321.3,0.00,1.2,7.4,"07:20:08",1
"21/12/20","07:40",0.0,4.0,81.4,1015.2,327.3,1.8,3.4,335.6,0.00,1.1,7.3,"07:32:24",1
"21/12/20","07:50",0.0,4.1,82.0,1015.2,301.2,1.8,3.7,326.4,0.00,1.3,7.6,"07:49:44",1
"21/12/20","08:00",0.0,4.3,82.2,1015.2,336.1,1.6,3.1,317.6,0.00,1.6,7.3,"07:50:24",1
"21/12/20","08:10",0.0,4.4,82.1,1014.9,328.1,1.8,2.7,304.1,0.00,1.7,7.4,"08:02:00",1
"21/12/20","08:20",0.0,4.5,82.2,1015.4,271.7,1.0,1.9,328.4,0.01,1.8,7.5,"08:10:32",1
"21/12/20","08:30",0.0,4.7,82.3,1015.4,326.4,2.3,3.2,319.1,0.02,2.0,7.4,"08:28:40",1
"21/12/20","08:40",0.0,4.9,82.4,1015.4,316.2,2.6,3.6,310.6,0.04,2.2,7.3,"08:33:20",1
"21/12/20","08:50",0.0,5.0,82.4,1015.9,315.0,2.5,3.9,320.9,0.04,2.3,7.7,"08:48:16",1
"21/12/20","09:00",0.0,5.3,81.9,1015.9,318.2,2.2,3.2,322.9,0.05,2.5,7.6,"08:51:20",1
"21/12/20","09:10",0.0,5.5,81.1,1016.1,311.4,2.1,3.1,318.1,0.07,2.6,7.5,"09:06:56",1
"21/12/20","09:20",0.0,5.7,80.1,1015.9,293.3,1.6,2.4,316.6,0.06,2.6,7.6,"09:10:16",1
"21/12/20","09:30",0.0,6.4,79.5,1016.1,314.5,1.0,1.7,299.4,0.17,3.2,7.5,"09:25:20",1
"21/12/20","09:40",0.0,7.3,76.7,1016.6,300.0,0.8,2.5,307.5,0.26,3.5,7.6,"09:36:44",1
"21/12/20","09:50",0.0,7.6,72.6,1016.6,278.3,1.7,4.5,307.0,0.22,3.0,7.6,"09:49:00",1
"21/12/20","10:00",0.0,8.1,69.7,1016.8,292.6,2.2,3.4,266.1,0.30,2.9,7.5,"09:53:00",1
"21/12/20","10:10",0.0,8.5,68.2,1016.8,270.6,1.8,4.3,319.7,0.26,3.0,7.8,"10:00:32",1
"21/12/20","10:20",0.0,8.4,66.4,1016.8,321.0,3.0,5.1,326.7,0.31,2.5,7.8,"10:18:44",1
"21/12/20","10:30",0.0,8.7,65.6,1016.8,323.4,3.0,4.7,357.7,0.39,2.7,7.9,"10:25:04",1
"21/12/20","10:40",0.0,8.6,65.0,1016.6,328.2,3.1,6.2,341.0,0.32,2.4,7.8,"10:35:32",1
"21/12/20","10:50",0.0,8.7,65.1,1016.6,302.3,2.2,4.3,326.6,0.19,2.6,7.8,"10:41:30",1
"21/12/20","11:00",0.0,8.8,64.7,1016.4,290.2,2.1,3.5,333.7,0.18,2.6,8.0,"10:52:24",1
"21/12/20","11:10",0.0,8.7,63.9,1015.9,320.9,2.5,5.5,321.9,0.19,2.3,7.9,"11:09:28",1
"21/12/20","11:20",0.0,9.0,63.8,1015.4,296.2,2.3,4.1,329.7,0.22,2.6,7.8,"11:13:44",1
"21/12/20","11:30",0.0,9.1,62.4,1015.4,322.9,2.1,4.7,334.7,0.21,2.3,7.9,"11:25:52",1
"21/12/20","11:40",0.0,9.5,62.0,1015.2,259.6,1.6,2.7,268.7,0.21,2.6,8.2,"11:32:16",1
"21/12/20","11:50",0.0,9.5,61.1,1015.2,328.9,2.5,5.9,341.0,0.22,2.4,8.1,"11:47:28",1
"21/12/20","12:00",0.0,9.6,60.8,1014.9,318.2,2.7,5.4,343.8,0.21,2.4,8.3,"11:59:20",1
"21/12/20","12:10",0.0,9.8,60.5,1014.9,309.9,2.5,5.1,337.4,0.20,2.6,8.1,"12:07:36",1
"21/12/20","12:20",0.0,9.8,59.8,1014.7,293.7,2.3,4.5,304.2,0.20,2.4,8.3,"12:10:16",1
"21/12/20","12:30",0.0,10.0,59.5,1014.5,289.0,2.5,4.4,299.0,0.23,2.5,8.2,"12:21:04",1
"21/12/20","12:40",0.0,10.0,59.0,1014.0,315.3,3.0,6.0,0.0,0.21,2.4,8.4,"12:35:20",1
"21/12/20","12:50",0.0,10.7,58.8,1014.2,320.6,3.9,8.2,331.8,0.41,3.0,8.3,"12:40:24",1
"21/12/20","13:00",0.0,11.5,56.0,1014.0,298.9,3.2,5.0,333.2,0.57,3.1,8.6,"12:52:32",1
"21/12/20","13:10",0.0,11.5,54.6,1014.0,291.7,3.0,5.7,251.6,0.52,2.7,8.4,"13:07:36",1
"21/12/20","13:20",0.0,10.9,55.4,1013.8,309.3,3.7,7.3,329.9,0.28,2.4,8.6,"13:15:36",1
"21/12/20","13:30",0.0,11.6,54.8,1013.5,268.1,3.0,5.4,253.5,0.44,2.9,8.5,"13:21:36",1
"21/12/20","13:40",0.0,11.8,53.5,1013.5,280.9,2.7,4.5,291.4,0.46,2.7,8.7,"13:33:28",1
"21/12/20","13:50",0.0,11.6,53.3,1013.8,267.8,2.7,4.8,254.7,0.38,2.5,8.9,"13:49:44",1
"21/12/20","14:00",0.0,11.8,54.4,1013.8,245.7,2.5,5.6,303.3,0.34,2.9,8.9,"13:54:56",1
"21/12/20","14:10",0.0,11.8,52.5,1013.3,286.8,2.3,3.9,302.5,0.33,2.4,9.0,"14:06:24",1
"21/12/20","14:20",0.0,12.0,52.4,1013.5,273.8,2.6,4.8,245.9,0.30,2.6,9.1,"14:18:24",1
"21/12/20","14:30",0.0,12.3,52.9,1013.3,283.4,2.3,3.9,338.3,0.28,3.0,9.1,"14:27:44",1
"21/12/20","14:40",0.0,12.2,51.5,1013.8,273.3,2.2,4.5,247.4,0.26,2.5,9.0,"14:39:52",1
"21/12/20","14:50",0.0,12.5,51.3,1013.3,275.5,2.0,3.4,328.7,0.25,2.8,9.1,"14:40:24",1
"21/12/20","15:00",0.0,12.5,50.2,1013.3,272.2,2.5,4.2,322.0,0.26,2.5,9.2,"14:57:04",1
"21/12/20","15:10",0.0,12.2,51.2,1013.3,294.9,2.5,4.7,336.8,0.20,2.5,9.4,"15:07:44",1
"21/12/20","15:20",0.0,12.7,49.7,1013.0,296.6,2.6,4.9,281.2,0.24,2.5,9.4,"15:17:52",1
"21/12/20","15:30",0.0,12.7,48.6,1013.5,270.9,2.6,4.5,310.0,0.20,2.2,9.5,"15:20:02",1
"21/12/20","15:40",0.0,12.1,49.4,1013.8,275.7,3.1,5.2,295.3,0.16,1.9,9.6,"15:35:44",1
"21/12/20","15:50",0.0,12.0,49.7,1013.0,273.0,3.0,4.9,248.4,0.14,1.9,9.4,"15:47:28",1
"21/12/20","16:00",0.0,11.9,50.7,1013.5,266.1,2.7,5.5,241.8,0.10,2.0,9.5,"15:54:00",1
"21/12/20","16:10",0.0,11.6,51.1,1013.8,257.1,2.8,4.5,252.5,0.07,1.9,9.4,"16:08:24",1
"21/12/20","16:20",0.0,11.3,52.4,1013.3,254.4,2.7,4.9,237.2,0.03,2.0,9.6,"16:15:28",1
"21/12/20","16:30",0.0,10.8,53.3,1013.0,255.1,2.8,5.6,244.1,0.01,1.7,9.7,"16:20:24",1
"21/12/20","16:40",0.0,10.4,54.8,1013.5,260.1,3.4,5.5,244.4,0.00,1.7,9.4,"16:34:48",1
"21/12/20","16:50",0.0,10.1,56.2,1013.3,267.2,3.1,5.5,251.3,0.00,1.8,9.5,"16:45:44",1
"21/12/20","17:00",0.0,9.9,57.6,1013.5,259.7,3.0,5.0,254.7,0.00,2.0,9.6,"16:51:20",1
"21/12/20","17:10",0.0,9.7,58.3,1013.3,261.1,3.4,7.3,248.2,0.00,2.0,9.8,"17:07:04",1
"21/12/20","17:20",0.0,9.4,59.2,1013.8,268.9,2.5,4.1,257.7,0.00,1.9,9.7,"17:19:36",1
"21/12/20","17:30",0.0,9.2,59.5,1013.5,268.2,3.0,5.5,247.1,0.00,1.8,9.5,"17:22:08",1
"21/12/20","17:40",0.0,8.8,60.7,1013.3,271.5,2.3,4.9,244.3,0.00,1.7,9.7,"17:37:36",1
"21/12/20","17:50",0.0,8.5,61.8,1013.3,269.3,1.8,3.5,265.6,0.00,1.6,9.6,"17:40:16",1
"21/12/20","18:00",0.0,8.0,64.8,1013.8,301.2,2.5,3.4,320.5,0.00,1.8,9.7,"17:57:04",1
"21/12/20","18:10",0.0,7.2,68.8,1013.3,302.8,2.5,3.2,322.6,0.00,1.9,9.6,"18:04:56",1
"21/12/20","18:20",0.0,6.7,71.4,1013.3,290.3,2.1,2.8,296.7,0.00,1.9,9.5,"18:16:08",1
"21/12/20","18:30",0.0,6.4,72.8,1013.0,288.4,2.0,3.4,278.2,0.00,1.9,9.7,"18:24:48",1
"21/12/20","18:40",0.0,6.2,74.0,1013.3,285.5,2.1,2.6,277.0,0.00,2.0,9.4,"18:39:12",1
"21/12/20","18:50",0.0,6.0,75.1,1013.5,293.9,2.1,2.7,308.4,0.00,2.0,9.3,"18:41:36",1
"21/12/20","19:00",0.0,5.7,76.2,1013.5,300.6,2.0,2.8,307.3,0.00,1.9,9.3,"18:55:12",1
"21/12/20","19:10",0.0,5.5,77.4,1013.3,297.7,2.1,3.4,311.9,0.00,1.9,9.4,"19:07:52",1
"21/12/20","19:20",0.0,5.3,78.5,1013.3,272.6,2.0,3.4,266.0,0.00,1.9,9.4,"19:17:52",1
"21/12/20","19:30",0.0,5.2,79.6,1013.0,295.8,2.0,2.6,267.4,0.00,2.0,9.4,"19:20:48",1
"21/12/20","19:40",0.0,5.0,80.7,1013.5,306.8,2.3,3.7,329.2,0.00,2.0,9.5,"19:36:00",1
"21/12/20","19:50",0.0,5.0,81.9,1013.3,306.9,2.1,3.1,307.1,0.00,2.2,9.3,"19:48:48",1
"21/12/20","20:00",0.0,5.0,82.8,1013.0,300.2,2.2,3.3,322.5,0.00,2.4,9.3,"19:51:12",1
"21/12/20","20:10",0.0,4.8,83.5,1013.5,285.3,2.0,3.1,316.8,0.00,2.3,9.4,"20:08:16",1
"21/12/20","20:20",0.0,4.7,84.1,1013.5,298.7,2.1,2.7,317.2,0.00,2.3,9.2,"20:11:52",1
"21/12/20","20:30",0.0,4.7,84.7,1013.5,297.1,2.1,2.9,323.0,0.00,2.4,9.2,"20:29:04",1
"21/12/20","20:40",0.0,4.5,85.1,1013.3,300.5,2.2,3.1,317.1,0.00,2.3,9.1,"20:31:04",1
"21/12/20","20:50",0.0,4.4,85.5,1013.5,285.5,2.0,2.5,318.3,0.00,2.2,9.2,"20:48:48",1
"21/12/20","21:00",0.0,4.3,86.1,1013.3,286.1,2.0,2.6,312.4,0.00,2.2,9.0,"20:57:36",1
"21/12/20","21:10",0.0,4.5,86.5,1013.3,301.3,2.1,3.3,316.5,0.00,2.5,9.1,"21:04:00",1
"21/12/20","21:20",0.0,4.7,86.7,1013.0,300.2,2.1,3.2,322.8,0.00,2.7,9.0,"21:13:04",1
"21/12/20","21:30",0.0,4.7,86.9,1013.0,283.0,1.8,2.2,267.7,0.00,2.7,9.0,"21:29:20",1
"21/12/20","21:40",0.0,4.6,87.0,1013.0,292.8,2.0,2.6,266.2,0.00,2.7,8.8,"21:30:24",1
"21/12/20","21:50",0.0,4.5,87.2,1013.3,288.5,2.2,3.2,326.2,0.00,2.6,8.6,"21:49:36",1
"21/12/20","22:00",0.0,4.4,87.4,1013.3,289.4,2.2,3.7,312.1,0.00,2.5,8.9,"21:50:08",1
"21/12/20","22:10",0.0,4.4,87.6,1013.5,275.7,2.1,2.9,277.6,0.00,2.6,9.1,"22:03:44",1
"21/12/20","22:20",0.0,4.3,87.8,1013.0,296.6,1.8,2.2,306.0,0.00,2.5,8.8,"22:19:52",1
"21/12/20","22:30",0.0,4.1,88.1,1013.3,313.3,2.2,3.1,319.9,0.00,2.3,8.7,"22:28:48",1
"21/12/20","22:40",0.0,4.0,88.2,1013.0,290.2,1.1,2.4,327.4,0.00,2.3,8.9,"22:33:52",1
"21/12/20","22:50",0.0,3.8,88.5,1012.8,297.3,1.6,2.4,316.1,0.00,2.1,8.7,"22:44:56",1
"21/12/20","23:00",0.0,3.6,88.8,1012.6,308.4,1.7,2.6,323.0,0.00,2.0,8.5,"22:54:32",1
"21/12/20","23:10",0.0,3.3,89.0,1012.6,293.2,1.5,2.8,326.6,0.00,1.7,8.7,"23:06:50",1
"21/12/20","23:20",0.0,3.0,89.5,1012.6,320.2,2.0,2.8,332.5,0.00,1.5,8.8,"23:19:36",1
"21/12/20","23:30",0.0,2.7,89.9,1012.3,314.5,2.2,3.1,318.9,0.00,1.3,8.5,"23:21:36",1
"21/12/20","23:40",0.0,2.8,90.4,1012.1,296.8,2.2,2.7,315.8,0.00,1.4,8.7,"23:30:16",1
"21/12/20","23:50",0.0,2.8,90.7,1012.6,291.1,2.1,2.7,299.5,0.00,1.5,8.5,"23:42:48",1
"21/12/20","24:00",0.0,2.7,91.1,1012.3,315.6,2.1,2.9,322.9,0.00,1.4,8.5,"23:52:24",1
